Location: Pagani
(40.7500°N, 14.6167°E)
Time: 08:28:53
(UTC+00:00)

DELTA 2 R/B (1) - Pass Details

Date: 15 May 2026
Orbit: 787 x 800 km, 39.6° (Epoch: 6 June)

Event Time Altitude Azimuth Distance (km) Brightness Sun altitude
Rises 18:58:51 0° 263° (W) 3,290 7.6 -8.5°
Reaches altitude 10° 19:01:20 10° 262° (W) 2,359 6.8 -8.9°
Maximum altitude 19:06:55 80° 176° (S) 808 3.6 -9.8°
Drops below altitude 10° 19:12:28 10° 91° (E) 2,351 5.5 -10.6°
Enters shadow 19:13:01 - 90° (E) 2,558 5.7 -10.7°
